Theta_e
335 335 336 337 338 341 343 344 344 345 346 348 348 348 346 347 347 347 349 348 348 346 345 344 343 343 343 345 345 347 347 349 350 352 354 355 355 355 356 356 356 356 359 358 354 361 356 355 356 357 357 356 354 353 352 352 350 351 352 358 352 347 348 349 347 346 339 336 337 339 339 341 349 349 346 347 348 348 349 351 352 353 351 351 352
336 334 335 336 337 339 342 343 344 342 344 346 346 346 346 347 347 347 348 347 347 347 346 345 345 344 343 343 344 346 347 349 348 351 354 356 356 357 357 357 357 357 361 359 357 357 355 355 355 356 357 355 354 353 351 358 355 354 351 347 348 346 343 349 349 341 336 332 333 334 336 335 345 348 345 345 346 347 348 349 351 352 352 352 353
334 334 334 335 336 338 340 341 342 343 343 345 346 345 345 346 347 347 347 347 347 347 346 345 345 346 344 342 343 343 348 351 350 353 356 355 357 358 358 358 358 359 361 361 357 357 356 356 355 356 357 357 354 352 353 354 353 352 349 345 343 346 351 353 347 341 336 338 335 333 327 330 336 334 339 343 344 345 345 347 350 350 351 352 352
333 334 332 334 335 337 339 340 341 342 342 344 344 343 345 346 346 346 347 347 347 347 349 347 347 345 344 343 343 345 346 350 351 353 354 355 356 358 358 359 360 360 361 361 358 357 356 356 357 357 357 357 354 352 351 352 350 350 349 351 345 342 342 344 355 347 342 337 331 329 327 328 323 328 332 336 341 343 343 344 348 348 349 350 350
333 334 333 333 333 335 337 339 341 340 341 342 342 343 345 345 346 346 346 347 347 349 348 346 349 344 343 343 345 344 346 347 347 348 352 355 356 356 357 360 361 361 362 361 359 355 356 355 357 358 356 356 355 353 352 352 354 352 351 351 346 343 342 343 347 350 344 341 338 331 326 325 325 328 331 331 337 338 340 342 346 347 346 347 348
334 334 333 333 333 335 336 338 339 339 340 342 343 344 345 345 346 346 346 347 347 347 348 346 347 343 339 338 337 337 339 342 343 346 349 351 354 357 358 360 361 361 362 362 360 357 355 356 358 358 356 356 357 355 355 352 352 352 353 352 350 347 343 343 341 348 350 353 342 335 331 327 325 328 328 324 332 339 338 339 341 345 345 345 345
336 336 335 333 333 334 335 336 338 338 340 343 342 343 345 345 345 346 346 347 347 347 347 348 345 343 341 339 339 338 339 342 346 349 351 352 355 355 356 359 361 361 361 362 362 360 357 357 358 357 356 356 361 356 354 354 355 356 355 352 351 353 346 342 341 342 344 347 352 349 348 343 334 330 326 326 323 326 333 337 338 339 342 342 342
335 335 335 334 334 334 334 336 337 338 340 341 341 343 344 345 345 345 346 348 347 347 347 347 345 343 341 339 340 339 339 342 346 349 351 353 353 354 355 357 359 360 360 360 361 361 359 358 358 357 356 356 360 358 357 356 355 355 356 355 352 353 349 344 341 342 342 341 354 348 346 351 339 339 331 331 325 322 324 328 334 337 338 339 341
335 335 335 335 333 334 336 336 337 338 339 339 340 342 344 345 345 345 345 347 347 347 347 346 347 344 342 340 339 341 339 341 346 350 350 353 351 352 353 355 356 358 359 360 360 361 362 359 358 357 357 356 364 360 358 357 355 354 353 352 352 352 353 348 345 343 342 342 340 339 339 338 338 338 336 334 330 324 322 324 326 330 333 335 337
336 336 336 336 335 335 337 337 337 337 338 340 340 342 343 344 344 344 344 346 347 346 347 345 346 346 342 340 339 339 341 339 342 346 348 350 349 349 352 353 354 355 356 358 358 359 360 359 358 357 358 358 362 360 359 357 355 353 354 354 353 351 351 354 350 346 347 343 342 338 337 336 334 333 333 331 330 327 324 323 326 328 325 328 333
335 336 336 336 337 336 337 336 337 337 337 338 339 340 342 343 343 343 343 346 347 346 346 345 345 345 342 341 339 338 338 337 338 342 345 346 347 347 349 352 352 353 354 356 357 357 358 359 358 357 358 361 361 359 358 358 357 354 354 353 353 352 351 352 356 353 350 346 343 342 339 338 334 332 330 332 331 328 326 326 329 332 326 327 329
335 336 336 336 336 336 336 336 337 337 337 336 338 339 341 342 342 342 343 345 346 346 346 345 345 345 343 342 340 339 338 337 337 339 344 345 346 346 347 350 350 352 351 353 354 356 357 357 358 357 358 357 358 359 359 358 358 355 352 352 354 353 352 352 351 351 350 347 346 345 343 342 337 335 336 334 333 331 328 326 326 328 329 331 333
335 335 336 335 335 335 335 335 336 336 336 336 337 338 340 341 341 341 342 344 345 346 346 345 344 344 344 342 341 340 338 338 337 338 342 345 346 345 345 347 348 348 349 351 353 354 356 355 355 355 355 357 358 358 357 357 356 354 352 353 353 353 354 353 350 352 352 349 348 349 348 345 344 342 341 341 336 334 331 328 327 332 327 328 329
335 336 336 335 335 336 335 335 336 337 337 336 337 338 340 340 341 341 342 344 345 346 346 345 344 344 344 343 341 341 339 338 337 337 339 343 345 345 346 346 348 349 349 350 353 354 355 356 356 355 355 355 356 356 356 354 354 352 352 352 354 355 355 354 353 354 352 353 350 348 346 347 347 347 343 341 339 335 331 328 327 327 330 329 329
336 336 336 336 336 336 336 336 336 337 337 337 337 338 339 340 340 341 341 343 345 345 346 345 345 344 344 343 342 341 340 339 338 339 338 340 342 345 345 346 347 349 350 350 353 353 354 355 355 355 355 354 355 355 357 354 354 353 353 352 355 355 355 356 355 355 356 354 351 350 351 347 348 347 346 345 342 340 336 331 331 329 327 324 328
336 336 336 336 337 337 337 336 336 337 337 338 337 338 339 339 340 341 342 343 344 346 346 346 345 345 344 343 342 342 343 340 339 340 339 339 340 343 345 346 347 348 350 350 351 353 353 354 355 355 355 355 355 355 355 354 352 352 350 351 351 357 354 354 355 354 355 354 354 352 348 350 351 351 350 349 343 340 338 336 332 328 326 324 322
336 336 336 337 337 337 337 337 337 337 337 337 338 338 339 340 340 340 342 344 344 346 345 346 346 344 344 343 342 342 341 340 338 337 338 339 338 340 344 346 347 347 349 350 350 351 352 353 353 354 354 354 354 355 355 354 352 352 353 350 351 353 354 353 354 353 353 354 353 353 352 351 351 350 350 352 349 339 338 337 335 333 329 327 322
336 337 338 338 338 337 338 338 338 338 338 338 338 339 339 341 340 340 341 342 344 345 345 345 345 344 344 343 342 342 342 342 340 338 338 339 338 338 341 344 346 348 349 350 350 350 351 357 353 353 354 354 355 355 355 354 353 351 352 351 353 352 353 353 353 352 352 351 353 352 351 351 353 350 350 351 349 343 341 341 339 336 333 330 325
336 336 337 337 338 338 337 338 339 339 340 339 339 340 340 341 342 341 341 342 344 346 346 346 346 346 345 344 342 341 342 342 342 340 337 338 339 338 338 342 345 347 349 348 348 349 350 351 352 352 353 353 354 355 355 354 353 352 351 351 350 351 352 351 352 352 352 351 350 350 349 349 351 350 350 350 349 347 344 343 340 338 336 334 330
335 336 337 338 338 338 338 338 338 339 339 339 339 340 339 340 342 342 342 342 344 345 346 345 345 345 345 345 343 342 342 342 342 340 337 336 339 340 339 339 342 346 347 348 348 348 350 350 351 352 352 352 353 354 355 355 354 353 352 352 352 350 350 350 351 352 353 351 349 348 349 348 349 348 349 349 348 349 346 342 342 341 336 335 334
335 336 337 338 338 339 339 339 339 340 341 341 340 340 340 340 341 342 341 342 342 344 346 345 345 344 345 344 344 342 341 341 341 342 339 337 337 341 340 340 341 343 346 347 347 348 348 349 350 352 352 352 352 353 354 354 353 353 352 351 351 351 351 350 350 350 351 351 350 349 349 349 349 349 350 349 349 350 347 346 344 342 340 337 337
335 336 337 338 338 339 339 339 340 340 340 340 340 340 341 340 341 342 342 342 343 343 345 345 345 344 343 344 344 343 342 341 341 341 341 339 337 338 340 340 339 341 343 345 347 348 348 348 349 349 351 352 352 352 353 354 353 353 353 354 353 351 351 350 348 349 350 352 350 348 349 349 347 348 349 350 349 349 348 346 344 346 343 343 339
335 336 337 338 338 339 339 339 339 339 340 341 341 340 341 341 341 342 342 342 344 344 345 346 346 344 343 344 344 343 343 341 340 340 340 341 340 338 339 339 339 340 342 343 345 346 347 348 348 348 349 350 351 351 352 353 353 353 352 353 354 352 351 351 350 350 350 350 349 350 350 349 349 347 348 349 348 347 348 348 348 347 345 345 343
333 335 337 337 338 338 339 339 338 339 339 340 341 341 342 342 342 343 342 342 343 345 346 346 346 346 345 344 343 344 343 342 341 340 340 341 342 341 341 339 338 338 339 342 342 343 345 345 346 347 348 349 349 350 351 352 353 353 353 352 353 352 352 352 352 352 351 350 350 349 350 350 347 346 347 347 347 347 347 346 346 346 346 347 346
331 332 335 336 336 337 338 339 339 339 339 340 341 341 342 342 343 343 343 344 344 345 346 347 347 346 346 345 344 344 343 343 342 341 341 341 341 341 342 342 340 338 337 339 342 341 340 341 343 344 346 348 349 350 350 351 353 354 353 353 353 352 352 352 352 352 356 351 350 350 351 349 347 348 349 348 348 346 348 347 347 346 346 347 347
326 329 331 333 334 336 338 339 340 339 340 340 341 342 343 343 344 345 345 345 345 346 346 347 347 347 346 346 345 344 344 343 343 343 342 342 341 341 340 342 343 341 339 338 339 341 342 340 340 340 342 344 348 349 350 351 352 353 353 353 353 353 353 352 352 351 351 351 351 351 351 350 349 349 350 350 348 348 347 347 346 347 346 344 344
323 325 327 329 330 332 336 339 339 339 340 341 341 342 343 343 344 346 346 346 346 347 347 347 348 347 347 347 346 346 345 345 345 344 344 343 342 342 341 340 342 343 341 340 339 339 342 342 341 341 340 341 343 347 349 350 351 351 352 352 353 353 353 353 352 352 352 352 352 352 351 351 350 350 350 350 349 347 348 348 348 347 346 344 345
322 322 323 324 326 328 331 335 338 339 339 340 342 343 343 343 344 346 347 348 348 347 347 347 348 348 348 348 348 347 347 347 347 346 345 344 344 343 342 342 341 341 342 342 341 340 340 342 343 343 343 343 342 344 347 349 350 351 351 351 352 353 353 353 353 353 353 353 353 353 354 353 352 352 351 351 350 349 348 347 349 348 347 345 345
320 320 322 322 323 325 327 330 332 334 338 339 342 342 343 344 345 347 348 348 349 348 348 348 348 348 348 349 349 349 349 349 349 347 347 346 345 344 344 343 342 341 342 343 343 343 341 341 342 343 344 345 344 344 346 348 349 350 351 350 351 352 352 352 352 352 352 352 352 353 354 354 356 361 359 357 356 355 350 348 348 347 346 346 345
318 320 321 321 322 324 325 328 329 331 335 337 340 342 343 343 344 346 348 349 350 349 348 348 348 348 350 350 350 351 350 349 349 348 348 348 347 346 345 344 343 342 342 343 343 343 343 342 341 341 343 345 346 346 345 338 342 350 350 351 351 351 352 352 351 351 351 352 352 352 354 361 362 359 354 350 346 348 355 354 350 348 347 346 345
319 320 320 321 322 323 324 326 328 329 332 336 337 339 343 344 344 346 348 350 351 350 349 349 349 350 350 351 351 351 351 350 350 350 349 349 348 348 347 346 345 344 343 342 343 342 343 343 343 342 341 343 346 347 338 332 333 338 349 350 350 350 351 351 351 351 350 351 352 352 352 356 361 365 358 348 345 343 343 344 347 355 357 350 346
319 320 321 320 321 322 323 325 328 329 332 334 336 338 341 344 345 346 347 350 351 350 350 350 350 351 351 351 352 352 351 351 351 350 350 350 350 349 349 348 347 346 346 345 343 343 343 343 344 343 342 342 343 339 332 330 331 331 339 351 350 350 350 350 351 351 351 351 351 351 352 353 353 353 354 355 352 346 341 341 341 342 344 348 351
318 319 321 320 321 322 324 326 329 330 331 333 336 338 337 340 345 347 349 350 350 351 350 351 351 352 352 352 352 352 352 352 351 351 351 351 350 349 349 349 348 349 348 347 345 344 344 344 344 343 343 344 344 336 330 329 329 329 330 342 350 350 349 350 350 351 351 351 351 351 351 352 353 361 361 356 354 354 346 339 338 340 341 340 336
317 319 320 321 322 323 325 327 329 331 333 334 338 338 339 340 345 351 350 349 349 351 351 351 352 352 352 352 353 352 352 352 352 352 352 351 350 349 350 350 350 350 349 348 348 346 346 345 344 344 344 345 344 337 328 327 327 327 328 334 348 349 349 349 350 351 351 351 351 350 350 350 351 352 353 353 353 353 353 352 349 347 346 349 344
316 317 319 320 322 323 326 328 328 331 332 334 334 336 337 339 342 348 346 345 346 346 350 351 352 352 353 353 353 352 352 352 352 352 351 351 350 350 350 350 350 349 349 348 348 348 347 347 346 346 345 345 346 334 326 324 324 324 326 331 345 349 349 349 349 350 351 352 351 352 351 350 350 350 351 352 351 351 351 351 350 350 350 350 349
316 317 318 318 320 323 325 327 332 331 331 333 332 334 335 337 341 346 346 345 346 345 346 350 351 353 353 354 353 353 353 353 352 352 351 351 350 350 349 350 350 350 350 350 350 350 348 348 348 347 346 345 347 331 325 323 322 322 325 336 342 346 348 349 349 349 350 351 352 352 351 351 351 351 353 344 350 352 349 348 348 348 348 349 349
318 318 319 320 321 322 324 328 329 331 332 333 333 335 336 335 339 341 343 344 344 344 345 348 351 352 354 354 355 354 353 353 353 352 351 351 350 350 350 351 349 349 349 348 349 349 349 349 348 347 346 346 346 335 323 320 320 320 324 339 342 345 347 348 349 349 350 350 351 351 351 351 351 350 346 335 334 350 349 348 347 347 348 348 348
318 319 320 321 322 322 324 326 326 329 331 332 333 334 336 336 338 340 341 342 345 345 346 347 348 350 352 354 355 355 354 354 353 352 352 352 352 352 351 352 350 349 348 349 349 349 349 350 348 348 347 346 346 339 323 318 318 318 327 340 343 344 346 347 349 350 350 350 351 359 359 351 350 350 338 332 331 341 346 347 347 346 345 345 346
318 319 318 320 321 323 325 325 325 327 328 331 333 333 335 338 339 340 342 342 344 346 347 347 348 349 350 351 353 354 355 354 354 353 353 353 352 352 352 352 351 350 350 350 350 349 349 349 349 349 346 346 347 341 323 319 317 316 326 341 344 344 345 346 348 349 350 351 349 355 359 353 352 346 334 330 328 336 344 345 345 345 343 343 345
319 319 320 321 323 323 322 322 323 324 326 327 331 331 335 339 340 342 343 343 344 344 346 349 349 349 350 350 351 352 353 353 354 354 354 354 354 353 352 352 351 351 350 350 350 349 348 348 350 350 349 348 347 348 340 318 316 314 319 341 345 344 344 345 347 348 348 349 350 349 348 334 330 331 329 326 324 324 342 345 345 343 343 343 346
318 319 323 320 322 322 322 322 323 323 325 327 330 330 332 334 338 337 337 336 337 338 339 342 346 349 349 349 350 350 351 352 354 354 355 355 355 353 353 352 351 351 350 350 349 349 348 348 349 350 350 349 349 348 345 320 315 314 315 326 344 345 346 346 346 346 347 347 348 349 349 338 326 324 323 322 320 319 326 343 345 344 345 346 346
318 320 320 320 321 322 322 323 322 322 324 327 328 327 329 330 332 333 332 332 333 334 336 338 340 345 350 351 349 350 351 351 352 354 354 354 355 355 354 353 352 351 350 349 349 348 348 348 349 349 349 349 348 341 349 325 317 313 313 316 340 346 347 347 346 346 347 347 348 349 349 341 327 323 321 319 317 318 320 334 342 329 330 331 342
314 316 319 320 320 320 321 321 321 321 324 325 325 325 326 328 328 329 330 330 331 332 333 334 336 341 347 351 352 349 349 351 351 352 353 353 354 354 354 353 352 351 349 349 348 348 347 347 347 348 349 350 350 348 334 341 319 314 312 312 322 337 333 348 348 347 347 348 349 350 351 345 327 320 317 316 316 317 321 329 323 323 324 326 337
315 316 317 320 319 321 321 320 320 321 323 323 323 323 324 325 325 328 327 329 329 330 330 331 333 338 344 349 352 352 350 350 351 351 352 352 353 354 354 353 352 351 349 348 348 348 347 346 346 346 348 350 350 350 337 329 331 314 313 311 314 320 328 343 349 349 349 350 350 350 347 331 323 316 314 315 316 318 329 320 317 319 321 329 337
314 314 317 319 319 320 321 319 319 320 321 321 322 321 322 323 325 326 326 326 328 328 328 329 332 336 342 346 350 352 351 350 350 351 351 352 352 353 352 353 352 351 350 348 348 348 347 346 346 346 347 348 350 350 350 336 325 320 314 312 313 315 318 323 343 349 350 351 339 331 328 324 322 317 315 315 316 316 314 317 318 320 334 335 337
313 313 315 317 318 320 320 320 318 319 319 320 320 320 320 322 324 325 324 325 326 326 327 329 332 336 339 343 346 349 351 350 350 350 351 353 353 353 353 352 352 351 350 349 348 348 347 346 346 346 346 348 349 349 350 348 333 327 320 314 314 314 318 319 329 344 338 335 331 326 323 322 323 325 330 332 334 335 321 318 319 326 330 334 336
311 313 315 315 317 317 320 320 318 318 318 319 320 320 321 322 323 322 323 323 324 325 327 330 331 333 338 342 345 347 349 349 349 350 351 353 354 354 353 352 352 351 351 350 349 347 347 346 346 346 347 347 348 349 349 349 344 339 336 329 320 321 317 318 324 333 337 339 338 336 336 329 330 329 331 332 333 337 337 332 329 331 333 334 336
313 313 315 315 314 316 318 320 318 318 317 318 319 319 320 321 321 321 322 322 323 325 326 328 330 333 338 343 344 347 348 348 348 349 350 351 353 354 353 352 352 352 351 350 349 348 347 347 346 346 346 346 347 348 349 349 348 343 340 336 331 330 329 327 328 331 335 340 343 339 333 337 337 337 336 337 339 341 342 341 339 337 336 337 339
312 313 316 315 315 317 318 319 318 318 317 317 318 318 319 319 320 320 320 320 322 324 325 326 329 334 340 342 342 344 347 347 348 349 351 352 353 353 354 354 355 355 354 352 351 350 350 350 349 348 346 345 346 346 349 335 348 332 339 340 334 332 333 332 329 325 337 337 336 339 340 340 340 340 341 341 342 342 341 341 342 340 338 338 337
313 314 315 315 318 317 317 318 318 317 317 318 318 318 318 319 318 319 319 320 321 322 323 326 330 335 339 341 342 343 346 347 348 348 350 351 346 334 344 355 354 342 336 333 332 350 353 352 350 350 350 348 347 349 333 325 322 320 319 322 323 321 320 330 326 318 330 335 336 337 339 340 341 342 342 342 343 343 343 341 341 335 338 338 337
312 313 314 315 315 318 318 318 317 317 317 318 317 317 317 317 317 318 319 319 319 321 324 325 328 332 336 339 340 341 344 347 348 350 351 350 350 346 313 305 313 328 328 319 316 321 326 333 348 350 345 332 331 329 322 317 316 314 313 314 314 313 313 314 315 324 331 334 335 336 338 339 340 342 342 343 343 343 342 343 342 340 338 338 336
Wind_Speed
14 15 17 17 16 16 14 13 12 13 12 13 13 13 11 11 10 11 8 8 8 8 7 7 7 5 4 7 7 6 6 5 6 5 5 5 5 5 5 5 5 5 4 4 5 4 4 4 4 3 3 3 3 4 3 3 2 2 1 1 2 1 2 1 1 2 2 2 3 2 1 2 3 4 5 5 5 5 4 4 3 4 4 5 5
13 12 16 16 15 16 15 13 13 14 11 13 14 14 12 11 12 11 8 8 9 9 9 8 7 7 6 6 5 5 6 6 5 5 5 5 5 5 5 5 5 5 5 5 4 5 5 4 4 5 4 4 3 2 2 3 2 1 1 1 0 1 1 1 1 1 1 2 2 0 2 2 1 4 5 4 4 4 4 4 3 4 5 5 4
15 14 16 16 17 17 15 14 14 15 15 15 14 14 13 12 11 10 9 9 9 10 9 8 6 5 6 5 6 4 3 5 6 6 5 5 5 5 5 5 5 5 5 5 5 4 5 5 5 4 4 4 3 3 3 3 3 3 3 2 2 0 1 1 1 0 1 1 2 2 1 1 3 2 1 3 4 4 3 4 4 5 6 5 4
18 16 17 17 17 17 15 15 15 14 13 13 14 15 13 12 11 10 10 9 9 10 10 8 7 5 5 6 4 5 5 3 4 3 4 4 5 5 5 5 5 5 4 4 4 4 5 5 5 5 5 4 4 4 4 4 3 2 2 1 1 1 1 1 0 1 3 5 1 0 1 1 2 4 4 5 3 5 5 6 5 6 6 4 3
18 17 16 17 18 18 18 16 15 15 14 14 14 14 11 14 13 12 11 10 9 9 10 7 6 4 3 4 4 3 2 4 3 3 5 6 5 4 6 5 5 5 4 5 5 5 5 4 5 5 4 4 3 4 4 5 4 3 3 2 2 2 2 1 1 1 2 2 6 2 1 1 2 4 2 5 1 1 4 6 5 6 6 5 5
18 19 17 18 18 17 16 17 17 16 16 15 15 15 14 13 13 12 10 10 10 10 9 8 8 8 6 6 6 4 4 6 8 9 7 7 7 6 5 5 6 5 4 5 4 4 5 5 4 4 4 4 4 4 3 2 3 3 4 4 3 2 1 0 1 0 1 1 2 2 4 2 2 1 1 3 4 3 2 3 5 6 5 5 5
16 16 15 16 18 18 18 18 18 17 16 15 14 15 15 14 13 13 11 10 9 9 9 9 8 7 9 9 8 8 8 7 7 7 8 6 5 6 6 5 5 6 5 5 4 4 4 4 4 4 4 4 3 3 3 4 4 4 2 3 4 2 2 1 2 2 2 0 1 2 1 1 4 3 2 1 3 3 2 4 4 4 5 5 5
17 18 17 17 19 20 21 20 18 18 16 15 14 14 15 15 14 14 11 11 10 9 10 10 10 9 9 8 7 8 8 8 7 7 6 6 6 6 5 5 5 5 6 5 5 4 4 5 5 4 4 4 4 5 5 4 4 3 3 3 2 3 3 3 2 1 2 1 0 1 1 1 1 0 2 3 1 1 4 3 2 4 4 6 6
18 17 18 17 19 20 19 19 18 18 16 16 15 15 14 14 14 13 12 11 10 11 11 10 10 11 10 8 8 6 6 5 5 4 5 6 7 5 5 5 5 5 5 5 5 5 5 5 5 4 4 4 4 5 4 4 5 4 3 3 4 3 3 3 2 3 3 3 0 1 0 1 1 0 1 1 1 1 3 2 4 3 2 5 6
17 19 18 18 17 18 19 17 17 17 16 16 16 14 14 13 14 15 14 12 11 11 11 11 11 10 10 9 9 7 5 4 5 6 5 5 7 6 6 5 5 5 5 5 5 5 5 5 5 5 5 5 4 5 4 4 4 4 4 4 3 3 3 3 4 3 4 3 3 2 1 0 0 0 1 1 1 0 2 2 3 3 2 5 3
15 16 17 17 16 17 16 18 19 16 14 15 15 15 14 14 15 16 15 12 11 12 12 12 11 10 11 10 10 9 6 6 6 6 5 4 6 6 6 6 5 6 5 5 6 5 5 5 5 6 5 5 5 5 5 5 5 5 4 3 3 4 4 4 3 2 3 2 3 3 4 3 3 2 2 1 1 0 1 2 4 3 3 4 3
15 15 16 16 15 15 16 18 17 18 15 16 15 15 15 15 15 16 14 13 12 12 12 12 11 11 10 10 11 9 8 7 9 9 9 9 8 8 6 5 6 5 5 5 6 6 6 5 5 5 5 5 6 5 5 5 5 4 3 4 4 3 3 3 3 3 3 3 3 3 4 3 2 3 2 2 1 2 1 3 3 3 2 4 5
15 15 15 15 16 17 18 18 17 17 17 18 18 16 15 15 17 17 16 15 14 13 14 14 12 12 11 11 10 8 8 8 8 8 8 9 8 7 7 7 6 6 7 7 7 7 6 6 6 6 6 6 6 5 5 5 4 4 4 4 4 4 5 5 5 5 4 4 5 4 4 2 3 3 3 3 1 1 2 2 1 0 0 3 2
15 15 16 16 16 16 18 18 18 17 18 18 18 17 15 15 16 18 18 16 14 14 15 14 14 13 11 11 10 9 9 9 8 8 8 8 8 8 8 8 8 9 8 9 8 7 6 6 6 7 6 6 5 6 5 5 4 5 4 4 5 6 4 4 5 4 3 3 2 2 3 4 4 3 3 2 3 2 1 2 2 1 1 2 3
14 15 16 17 17 17 17 17 17 17 18 18 17 17 16 16 17 18 17 16 16 16 14 15 14 13 11 11 10 9 10 9 9 8 8 8 7 8 8 7 8 8 8 8 6 6 7 6 6 7 6 6 5 5 5 4 4 4 4 4 5 5 5 5 5 4 4 4 3 4 4 3 5 3 4 4 3 4 4 3 2 3 4 3 3
15 16 17 17 17 16 16 16 17 17 19 17 18 17 17 17 17 18 18 17 16 16 15 16 15 13 12 11 12 11 9 9 7 6 7 8 8 9 9 8 8 7 7 6 7 6 7 7 6 7 6 6 6 6 5 5 4 4 4 3 5 3 5 5 5 3 5 4 4 3 2 5 4 3 3 3 4 4 4 4 3 3 1 3 3
17 17 17 17 16 16 17 17 16 17 17 18 18 18 18 17 17 18 17 16 17 17 17 15 14 13 13 13 11 10 10 10 11 11 10 9 8 9 8 9 8 6 7 6 7 6 6 7 7 7 7 6 6 6 6 5 4 4 4 4 5 4 4 6 5 4 4 4 3 4 4 4 5 2 2 4 3 2 3 4 5 4 5 1 1
20 19 17 17 17 17 16 16 18 19 20 19 19 17 17 17 18 18 17 18 17 16 16 15 15 14 13 13 12 13 12 12 11 11 10 8 8 8 7 7 8 8 7 7 7 7 6 6 6 6 6 5 6 6 5 5 4 5 4 5 5 4 5 4 4 4 4 3 4 4 3 5 4 3 4 3 3 2 4 5 5 3 5 3 3
15 16 17 17 18 18 18 19 19 19 19 19 18 17 16 16 17 18 20 19 18 15 15 13 14 12 12 14 14 13 11 10 10 9 8 9 10 9 10 10 9 7 7 6 6 7 7 6 6 6 5 6 5 6 5 5 5 5 4 5 3 3 4 5 5 4 4 3 4 5 4 4 4 3 3 3 3 2 3 4 3 4 3 3 4
15 16 17 19 20 19 19 19 19 19 18 17 18 16 18 18 17 17 16 16 17 17 16 15 14 13 12 12 12 11 11 10 10 8 9 10 10 10 10 9 10 8 8 8 7 8 8 8 7 7 7 6 6 6 6 6 5 6 5 5 4 4 4 5 4 3 3 3 4 5 5 5 4 3 3 4 4 3 2 3 3 3 3 3 4
14 16 17 18 18 18 18 18 17 16 16 16 17 19 18 17 17 18 18 17 17 17 16 15 13 14 13 14 13 12 12 10 9 8 9 10 9 9 10 10 7 8 8 8 8 8 8 9 8 8 8 7 7 7 6 5 5 6 6 5 4 4 5 5 4 4 3 3 4 4 5 5 3 4 4 3 3 4 3 3 2 2 3 3 4
17 17 17 16 16 17 16 15 14 15 16 17 17 16 16 17 17 17 17 17 18 16 15 14 13 13 15 14 14 12 12 11 11 10 9 9 9 9 9 7 8 9 8 9 9 8 8 8 8 8 8 8 7 7 7 6 6 7 6 4 5 5 5 5 4 5 5 4 3 4 5 5 3 4 4 4 3 3 3 3 3 4 5 5 3
17 17 16 15 15 16 16 17 17 18 18 18 17 17 17 18 18 16 17 18 17 17 15 14 13 13 14 13 13 12 12 13 13 11 11 10 9 8 7 8 9 8 7 9 9 9 8 8 8 7 7 7 7 7 6 6 7 8 8 7 6 5 6 6 6 7 6 4 4 5 6 4 3 3 4 4 3 3 3 4 4 3 4 4 4
5 5 8 10 10 11 12 14 15 15 16 18 18 17 17 17 17 16 18 18 17 15 15 14 14 14 14 13 13 12 13 13 14 13 13 11 10 8 6 7 8 7 8 8 8 9 8 8 8 8 7 7 7 7 6 7 8 8 8 8 7 6 6 6 7 6 5 5 6 5 6 5 3 4 4 4 4 3 4 4 4 3 3 5 3
9 4 2 4 6 10 14 16 17 17 17 17 18 17 17 17 16 17 17 17 16 15 15 15 15 15 14 14 14 13 14 14 15 13 14 13 12 10 8 8 8 8 7 7 7 6 7 7 8 9 8 8 8 8 8 8 8 8 8 8 7 6 6 7 7 6 5 5 5 6 7 4 4 5 6 5 4 4 5 4 5 4 5 4 3
17 16 15 11 6 4 8 11 12 13 14 15 15 16 16 16 17 17 16 16 16 14 15 15 14 15 14 15 15 14 15 15 15 14 15 14 13 12 10 9 9 10 8 8 8 8 8 9 9 9 9 9 8 8 9 9 9 8 7 7 6 6 6 6 6 6 5 5 6 7 7 5 4 6 7 6 5 5 4 5 5 5 4 3 3
16 15 15 16 16 14 11 4 5 5 8 10 12 14 14 14 15 15 15 15 15 15 15 15 15 15 14 15 15 15 14 14 14 14 13 13 14 14 13 12 10 11 10 10 9 9 9 9 9 9 9 9 8 8 8 9 9 8 8 8 7 7 7 6 6 7 6 6 6 7 7 6 6 7 7 7 6 5 5 6 6 6 4 3 5
17 19 19 16 15 17 16 15 8 3 4 5 9 11 12 12 13 13 13 14 13 14 15 15 15 15 15 16 15 15 14 14 13 13 13 13 13 13 13 13 11 11 11 11 11 11 10 9 10 9 9 8 8 7 7 8 8 8 8 8 8 8 8 7 7 7 6 7 7 7 7 7 7 7 8 8 6 7 5 5 6 4 4 4 5
18 17 16 16 17 14 16 14 12 14 11 4 7 9 9 11 12 13 13 15 14 14 15 15 15 15 16 15 14 13 13 13 13 13 13 13 13 12 12 11 11 11 10 11 11 11 10 10 9 10 9 9 9 9 8 8 8 9 8 9 9 9 9 8 7 7 7 7 6 7 7 8 8 11 12 11 9 8 6 7 6 4 5 5 5
14 14 14 15 14 15 14 14 16 15 13 14 10 4 11 12 13 12 13 13 13 14 14 15 15 16 15 14 14 12 12 12 12 13 13 13 12 12 11 11 11 12 11 11 10 11 11 11 10 10 9 9 9 8 10 15 13 9 9 9 8 8 8 8 8 7 7 7 8 7 8 13 14 14 13 13 14 13 12 9 8 5 6 5 6
12 13 14 14 14 14 14 14 15 14 13 12 10 11 9 9 11 12 13 14 14 14 14 15 16 15 14 13 12 13 12 13 13 13 12 12 13 12 11 11 11 11 11 11 10 11 11 11 11 11 11 10 9 9 14 15 16 16 11 9 9 9 8 8 8 8 9 8 8 7 7 10 11 11 12 14 14 14 14 14 14 11 9 8 6
12 12 14 13 13 15 14 13 13 12 13 12 12 11 11 10 7 11 13 13 15 15 16 16 16 14 13 13 13 13 13 14 13 14 14 13 12 12 12 12 11 11 11 9 11 11 11 11 10 11 11 11 10 12 15 15 16 17 15 11 9 8 8 8 8 9 8 8 8 8 7 6 7 8 8 8 10 13 14 14 15 14 13 13 11
13 14 13 13 11 10 11 10 10 11 10 11 12 10 11 11 12 7 7 11 13 14 14 14 14 13 13 13 12 13 13 13 13 13 13 12 12 13 13 12 13 12 9 10 12 11 11 11 11 11 11 11 10 13 15 16 16 17 17 14 9 8 9 8 8 9 9 8 8 7 7 7 7 12 10 8 7 8 10 13 14 14 13 13 13
11 12 14 13 11 10 9 7 8 10 9 9 7 10 10 11 11 6 1 1 1 5 11 13 12 13 13 13 13 13 14 14 13 12 12 12 13 14 14 13 11 10 11 12 11 12 11 11 12 12 11 10 11 13 16 17 17 17 17 15 10 10 9 9 9 9 9 9 9 8 8 8 8 7 7 7 6 7 7 6 6 6 7 10 12
10 10 10 11 14 15 13 11 11 13 11 10 11 10 12 12 11 7 1 8 7 2 5 6 10 11 12 12 13 14 14 14 14 13 13 13 14 13 12 12 11 12 12 12 12 12 11 11 12 12 11 11 11 15 15 17 17 18 18 15 11 10 9 9 10 9 10 10 10 9 9 10 9 8 8 8 7 7 6 6 6 7 7 7 7
10 10 7 7 9 11 11 11 10 10 12 10 10 12 12 13 11 8 1 3 8 11 11 9 9 10 12 12 13 13 13 13 13 13 14 14 14 14 14 12 11 11 11 10 10 11 12 13 12 12 12 13 12 16 16 17 18 18 17 11 10 11 11 10 10 10 10 10 10 10 9 10 10 9 11 14 12 8 6 7 8 8 8 7 8
9 10 9 7 8 8 9 8 8 9 10 11 11 11 11 12 12 9 5 2 3 5 5 7 9 11 12 12 12 13 13 13 13 13 14 14 14 13 12 10 11 12 12 12 12 12 11 12 12 12 13 13 12 14 17 18 18 18 13 9 9 9 10 11 11 11 10 10 10 9 9 10 10 10 12 13 14 11 7 8 8 9 8 7 10
9 9 9 9 8 9 10 8 9 9 8 8 10 10 9 10 10 11 8 6 3 4 5 5 6 8 10 12 12 13 13 13 12 14 15 13 12 10 11 11 12 12 13 13 12 12 12 12 13 14 14 14 13 14 17 18 19 18 16 11 9 9 10 11 11 11 9 9 10 15 13 11 11 12 14 14 14 10 8 9 9 9 9 9 11
7 9 11 11 10 10 9 9 8 10 10 10 10 10 9 7 9 10 10 9 4 4 4 5 6 6 6 8 9 11 12 12 13 13 12 13 13 13 11 11 12 12 12 11 11 11 11 11 13 14 16 16 14 14 17 18 19 19 16 10 10 9 10 10 10 11 10 9 8 11 16 15 13 14 17 15 14 11 9 10 9 8 9 11 12
7 8 8 9 10 9 9 8 9 9 9 7 7 7 6 5 8 11 6 6 10 11 11 10 7 5 7 8 9 10 11 12 13 13 12 12 11 11 12 12 12 12 12 11 11 11 13 12 12 13 13 14 14 13 13 19 19 19 21 13 9 9 11 12 10 10 9 9 9 8 11 15 18 18 18 17 15 15 11 10 8 8 10 13 11
9 8 8 8 8 8 8 8 8 9 8 7 6 6 5 4 3 8 10 10 10 10 10 10 9 10 8 8 9 11 12 12 12 12 12 11 11 13 13 13 13 12 12 12 13 12 13 13 12 12 12 13 13 14 13 18 19 20 22 18 10 12 12 11 10 10 10 10 9 9 8 13 17 18 19 19 16 14 14 11 9 9 12 14 8
6 8 7 7 8 9 9 9 8 9 10 8 6 6 6 4 3 4 7 8 9 9 9 10 11 10 10 9 9 11 12 11 11 10 10 11 11 12 11 13 11 11 13 14 13 12 12 12 11 11 12 12 13 17 13 16 20 20 21 23 13 13 13 11 11 10 10 9 10 9 9 13 17 18 19 17 17 16 15 10 12 16 16 14 10
8 8 9 9 8 9 10 10 10 10 8 8 8 7 7 6 5 6 7 8 8 8 8 9 10 11 10 10 9 10 11 9 10 12 12 13 11 11 12 12 12 12 13 14 13 12 12 11 10 10 10 11 11 12 19 14 18 21 21 22 23 17 18 14 12 12 12 11 9 10 11 14 16 17 16 17 16 18 12 11 18 17 15 14 8
6 8 9 10 9 9 10 10 10 9 9 8 7 7 7 6 6 7 8 8 8 7 7 8 8 9 9 10 10 10 10 11 12 12 13 14 12 12 12 11 12 12 12 13 12 11 11 11 12 11 10 10 10 11 13 19 16 20 20 23 23 23 19 14 13 12 12 10 9 10 11 15 16 16 16 16 16 15 12 17 16 15 13 10 6
7 8 7 7 9 12 10 10 9 10 9 9 7 7 8 7 6 7 7 8 8 9 8 8 8 8 8 9 9 9 10 11 12 12 12 12 13 12 12 11 11 12 12 12 12 11 12 12 11 12 11 10 10 10 10 14 19 18 21 22 23 24 22 20 14 13 11 11 12 15 15 14 14 15 16 13 10 11 16 16 16 16 13 6 6
6 6 6 5 8 10 11 11 11 10 11 9 8 7 9 7 7 7 8 7 8 8 7 7 9 8 8 9 10 10 10 11 13 12 12 12 13 13 13 12 12 12 13 13 12 12 12 12 12 12 11 10 9 9 11 10 11 15 16 21 23 23 23 22 20 16 19 19 18 15 13 11 10 8 7 6 8 10 14 17 16 12 6 7 7
8 7 5 6 5 8 11 13 13 12 11 10 10 8 7 7 7 8 9 8 8 7 6 6 7 9 9 9 10 9 8 9 12 12 12 11 12 12 12 12 12 13 13 13 12 11 11 11 12 11 10 9 9 10 11 10 9 10 10 11 13 13 15 13 11 12 12 10 10 8 6 8 7 10 12 11 11 11 9 8 8 8 8 8 8
7 7 6 5 4 4 8 11 11 11 12 12 11 9 8 7 7 8 9 9 9 7 7 7 9 9 9 9 10 13 11 9 10 11 12 12 12 13 13 13 13 14 14 13 11 11 12 12 12 11 10 10 11 11 11 12 10 10 10 9 10 10 10 11 12 12 12 12 10 5 4 3 5 4 6 5 7 7 8 7 7 8 8 8 9
8 7 6 6 5 5 5 8 10 10 11 12 12 11 9 8 7 8 8 9 10 10 9 9 8 8 9 8 9 10 9 8 9 10 12 12 13 13 14 14 16 14 14 14 13 13 14 14 13 12 12 12 12 13 13 12 12 14 14 12 10 11 10 10 15 16 11 6 4 6 6 6 6 8 7 7 7 7 7 8 8 7 7 7 7
8 7 6 7 7 6 5 5 7 8 10 11 12 11 10 8 8 8 8 10 11 10 9 9 8 9 10 9 7 8 10 9 9 9 10 10 14 18 17 15 14 18 21 21 18 15 15 13 13 12 12 14 14 16 16 18 19 20 20 21 20 19 18 15 16 17 10 7 8 9 9 9 10 9 10 9 9 9 8 8 8 8 7 7 8
9 8 8 7 8 7 6 5 5 7 9 10 11 11 11 9 9 9 9 10 11 10 8 8 8 8 10 10 9 8 8 8 9 9 9 10 8 5 8 9 6 4 11 18 18 20 17 14 12 10 12 18 18 14 14 18 18 18 20 20 19 19 18 19 13 10 6 9 9 9 10 10 10 10 10 10 9 9 9 9 9 9 8 9 9
Wind_Direction
178 176 177 179 175 176 176 176 178 179 178 176 177 178 183 181 178 185 176 164 167 171 175 171 172 160 163 178 188 190 186 183 183 183 183 185 181 184 183 183 182 180 181 171 179 178 175 177 178 189 183 178 182 204 204 216 218 193 204 252 234 261 285 240 273 132 109 28 8 15 330 254 232 216 222 214 216 220 213 215 213 206 221 229 232
177 173 178 178 177 176 175 177 176 176 182 178 181 181 183 181 184 182 172 169 173 177 179 180 180 178 167 178 172 177 176 177 186 188 189 186 183 185 185 180 181 185 182 178 176 175 169 176 181 188 183 192 203 208 208 220 205 201 168 268 304 212 248 227 182 117 39 148 141 294 329 326 280 184 219 237 235 229 216 221 216 222 228 230 230
185 179 176 180 178 176 177 178 180 180 178 182 185 180 180 182 186 181 181 175 178 177 174 184 184 166 160 169 168 166 193 185 181 187 181 185 187 189 186 181 180 189 182 176 170 176 175 172 188 187 189 188 191 200 208 213 198 206 189 194 276 309 283 277 192 146 148 93 101 92 315 345 318 355 300 245 223 227 214 221 222 229 236 229 217
187 182 179 179 178 178 178 180 181 180 179 183 182 183 182 184 184 182 185 182 177 180 179 180 179 168 146 149 159 156 176 188 180 170 183 177 192 191 195 184 184 186 181 176 169 175 174 181 182 188 193 192 188 188 197 212 207 215 174 189 129 307 346 314 194 164 131 129 89 117 239 115 342 299 284 284 222 219 210 221 214 228 235 236 192
187 185 179 179 179 181 181 181 178 180 182 184 183 184 186 185 185 182 183 187 183 179 173 160 150 135 119 102 119 63 77 153 155 196 196 194 184 184 203 192 188 187 182 181 171 177 179 180 183 191 188 198 191 197 197 209 207 208 188 176 177 173 264 293 321 127 188 170 133 90 18 23 228 255 356 288 287 244 238 229 225 224 232 228 214
189 188 184 181 181 179 180 179 181 184 185 185 184 183 183 186 184 182 184 187 187 182 164 156 163 161 154 149 160 158 159 177 191 195 195 196 196 195 191 194 190 188 188 185 178 170 179 185 186 182 193 194 198 205 206 204 221 209 206 192 205 210 175 157 291 153 185 221 175 157 165 176 206 254 102 280 319 227 239 234 232 231 227 229 224
195 193 186 180 181 181 182 182 184 185 187 183 183 185 185 183 184 184 185 188 187 181 165 163 162 167 178 184 178 177 176 203 198 193 190 197 192 185 191 191 191 189 192 188 182 177 176 183 187 193 194 195 203 194 204 212 215 215 192 186 217 182 137 225 227 258 353 350 203 241 208 189 145 118 230 31 333 321 287 248 249 244 235 232 232
192 195 191 184 183 183 184 184 183 186 183 181 183 184 185 183 182 185 186 186 187 179 173 173 171 177 184 194 189 181 184 193 192 193 189 183 186 193 183 192 191 194 190 187 186 182 174 181 188 191 193 203 200 202 213 217 222 235 198 209 191 188 178 190 237 202 163 265 282 277 298 358 152 177 144 180 186 284 313 320 269 236 229 234 227
192 193 194 188 185 187 185 184 185 182 180 182 184 185 185 183 182 183 186 186 186 182 178 180 179 182 186 189 194 193 180 183 180 178 182 184 188 188 186 192 190 197 195 186 190 185 183 183 187 192 195 206 208 210 221 215 216 220 224 218 220 216 193 198 163 203 180 218 142 308 25 52 34 354 146 104 162 165 281 268 292 324 271 258 234
194 194 194 194 187 188 187 183 180 184 183 182 183 182 182 181 182 183 188 188 185 185 182 183 183 180 187 192 195 193 172 150 163 176 186 179 190 190 191 191 191 193 203 193 190 192 189 186 188 195 201 205 211 210 215 219 224 223 225 222 221 229 217 197 202 199 193 218 189 172 168 56 57 37 57 98 35 147 223 275 248 270 284 277 252
195 195 194 195 190 185 180 184 185 183 181 181 183 182 181 181 183 186 189 186 184 185 183 188 187 184 190 191 194 192 178 164 164 181 178 180 190 194 193 199 191 196 195 202 196 191 193 193 193 200 202 204 211 210 216 216 220 219 226 227 232 225 224 213 233 211 192 193 194 181 191 188 189 177 225 219 178 244 12 305 300 235 217 296 284
194 195 194 193 188 184 182 185 184 184 179 182 184 183 182 183 183 187 187 186 186 185 187 190 190 192 191 189 192 193 178 177 179 183 186 188 190 193 194 188 201 198 198 202 206 198 193 197 201 201 204 205 213 213 216 217 222 215 216 217 232 236 237 219 220 227 200 203 219 205 212 190 176 196 202 160 165 239 193 257 260 305 288 234 278
194 196 193 191 190 185 185 186 184 183 184 183 184 183 184 184 185 184 188 187 186 186 189 190 192 195 192 191 193 188 184 185 189 188 189 190 189 188 181 195 194 199 206 206 210 200 193 195 200 202 210 211 213 213 222 219 219 209 210 216 225 229 226 221 220 228 213 200 222 219 208 188 217 213 168 170 165 154 168 280 278 213 260 310 304
194 195 194 193 191 188 185 185 185 186 186 184 184 184 184 185 186 187 189 186 185 188 190 190 197 197 193 193 191 188 193 189 191 193 194 194 187 190 191 193 194 203 202 209 206 195 198 202 201 206 207 207 208 214 219 219 209 213 210 210 219 229 225 224 230 236 229 231 214 223 227 222 240 204 193 152 176 157 193 203 251 321 53 304 294
194 195 197 195 192 188 186 186 186 187 186 185 185 185 184 186 186 190 189 188 185 188 189 194 197 196 194 195 192 191 196 196 195 194 189 191 194 193 198 196 198 205 205 208 199 197 200 201 206 208 208 208 207 215 223 216 211 211 216 216 223 222 221 225 236 234 241 247 239 224 246 243 245 219 181 217 175 200 195 181 153 318 336 13 343
196 198 198 197 193 188 187 186 187 187 187 187 187 185 186 188 187 189 188 187 189 188 191 194 196 194 192 193 197 196 199 199 198 193 194 193 193 195 198 200 205 205 208 200 207 198 198 200 205 212 209 208 208 212 221 220 209 204 217 213 228 214 218 225 235 229 243 246 250 256 249 263 257 253 218 234 205 206 200 167 129 122 143 307 337
196 197 198 196 192 191 189 186 186 187 188 190 189 187 187 186 188 190 190 188 189 191 192 193 195 193 195 195 195 197 200 201 201 197 195 193 192 198 199 204 205 204 206 205 205 203 202 199 202 210 209 210 210 213 218 224 215 211 209 208 226 222 212 224 229 224 239 248 256 253 241 259 269 259 262 253 237 181 189 188 174 161 160 126 309
197 197 195 193 194 191 190 189 187 187 189 190 190 187 187 187 187 188 189 191 193 192 194 194 193 194 196 196 197 199 202 207 206 202 196 188 193 198 202 200 206 206 203 205 202 203 204 203 202 208 211 209 214 215 217 225 217 218 215 213 220 207 216 228 228 224 240 237 253 269 252 264 267 270 257 256 261 196 172 192 201 165 151 159 179
196 196 194 195 195 194 191 191 189 189 189 190 188 185 187 191 190 189 190 191 190 193 195 198 195 194 195 196 196 198 203 210 213 209 198 195 196 196 198 204 204 204 202 203 201 204 200 203 200 206 205 213 216 220 218 225 219 222 216 215 211 190 206 224 233 219 237 226 246 257 265 265 274 276 278 276 276 223 215 174 169 146 169 145 161
202 198 197 198 197 194 191 190 189 188 187 188 186 186 189 190 190 194 195 191 191 193 194 197 197 197 197 196 199 198 200 205 211 207 205 205 203 196 200 200 205 198 203 202 202 204 202 201 201 200 205 209 213 221 217 223 222 226 219 213 209 187 200 219 237 227 229 219 230 247 254 253 266 272 274 256 252 253 215 188 171 166 173 157 141
205 203 202 200 197 194 192 191 190 187 186 185 187 190 190 188 192 192 191 193 195 196 195 198 194 198 196 196 196 194 198 201 208 212 214 215 210 203 201 204 193 200 197 200 205 207 205 205 201 198 202 205 209 216 217 219 221 230 229 220 206 199 210 228 228 248 242 227 230 241 253 253 249 268 270 256 240 244 226 230 187 160 177 176 155
200 202 202 201 197 193 189 188 187 185 185 187 190 190 188 190 193 191 193 194 194 196 197 197 197 198 198 197 198 195 196 196 202 208 218 221 218 211 206 198 196 205 194 200 205 208 207 207 204 203 203 206 209 211 212 208 220 228 233 218 219 211 219 228 220 240 244 239 233 241 257 260 240 243 265 270 231 223 213 220 213 190 202 205 206
200 200 200 200 197 192 187 185 186 188 188 187 188 190 191 192 191 192 193 195 195 196 195 195 196 198 201 200 197 197 195 197 200 204 213 219 222 222 210 202 205 203 199 202 204 205 206 205 207 206 203 207 210 213 208 207 219 221 225 225 216 213 219 224 223 232 236 241 250 246 254 254 242 247 258 261 260 239 220 216 226 207 218 223 198
297 246 216 206 199 192 188 188 188 189 188 189 191 191 192 192 192 192 195 195 194 194 194 195 197 199 199 198 199 199 197 199 202 204 209 214 216 220 213 213 213 206 200 207 205 206 206 204 207 208 202 204 208 212 207 209 217 218 223 226 221 215 218 222 226 230 230 223 235 249 253 250 243 243 256 257 254 247 238 235 242 238 227 237 218
31 19 292 236 207 199 200 195 193 192 191 190 190 191 192 191 192 194 195 194 193 192 193 195 196 198 200 200 201 198 200 202 205 205 207 207 210 214 213 216 215 215 210 203 210 205 206 204 208 210 207 204 206 206 206 211 217 218 222 226 224 220 221 223 225 228 225 219 228 235 249 243 237 247 262 256 248 245 239 231 236 240 230 241 239
28 29 31 18 345 278 231 215 205 198 195 190 191 193 192 192 194 193 192 192 194 192 193 193 195 199 201 202 201 200 202 204 206 208 209 207 206 207 210 213 213 219 217 212 209 208 206 210 213 214 211 210 207 206 207 210 214 217 220 225 225 222 224 224 227 228 225 217 222 232 243 239 231 232 247 252 249 246 245 239 243 242 234 229 242
26 28 28 25 18 9 355 291 250 234 208 197 196 195 194 195 195 194 193 192 192 192 193 194 196 199 201 203 202 203 203 204 205 209 210 211 210 208 206 210 207 214 216 217 217 215 215 214 218 216 217 213 211 210 211 212 214 213 214 217 222 220 222 221 225 227 225 222 224 229 233 227 230 232 239 242 241 241 231 238 235 240 235 222 241
25 28 25 22 18 14 10 7 359 276 215 211 206 200 199 193 195 196 192 192 193 193 193 195 196 199 202 204 204 202 204 205 205 206 209 213 214 213 210 208 205 209 214 216 217 216 218 216 220 220 221 216 212 211 213 215 215 212 210 215 216 220 222 224 227 225 222 223 226 232 235 230 225 230 231 241 228 237 228 242 238 229 232 225 241
25 22 22 21 21 12 8 8 11 12 356 283 206 202 198 196 199 193 192 195 191 192 195 197 198 201 203 204 203 204 204 205 205 206 209 212 215 217 216 213 208 210 213 215 217 217 217 217 220 221 223 219 215 214 210 210 213 213 209 213 214 216 220 225 229 229 225 223 227 232 237 237 231 232 229 232 231 222 219 233 244 218 231 228 242
26 21 20 19 17 16 10 9 13 9 7 6 343 255 202 198 198 191 193 193 187 194 196 198 201 203 204 203 202 202 203 203 205 207 210 211 214 215 215 216 215 214 214 213 216 217 217 217 218 220 220 220 221 217 213 208 207 209 209 214 215 217 220 223 227 232 234 227 229 230 236 238 239 240 238 236 237 235 229 225 234 209 220 222 232
14 19 20 16 14 13 12 13 9 4 3 0 351 349 320 227 201 194 191 188 187 194 198 201 204 204 203 201 201 202 200 203 205 208 208 209 212 212 214 215 216 216 216 215 215 217 219 219 219 218 218 221 223 221 212 206 207 209 208 212 213 218 216 220 223 227 234 233 234 232 235 242 243 243 243 238 237 237 237 238 242 235 215 206 225
6 8 14 13 7 7 9 9 360 0 3 356 355 349 352 333 255 203 194 188 189 194 198 201 204 204 202 201 202 201 202 204 204 206 206 208 208 209 212 213 214 215 215 214 218 220 220 221 221 221 221 221 224 221 210 207 205 207 209 212 215 218 217 218 222 226 232 235 237 237 236 236 236 234 237 244 239 238 237 238 241 244 243 237 229
4 4 7 3 355 357 359 355 358 358 353 355 352 348 349 337 327 273 204 189 194 196 198 200 203 202 203 201 201 201 204 207 207 207 207 206 206 208 210 211 213 213 209 211 218 219 222 222 223 223 224 223 227 219 211 208 205 204 207 211 218 215 216 219 220 223 228 232 235 238 244 239 241 240 240 238 238 245 238 236 241 247 252 247 247
11 10 1 349 344 340 341 348 357 342 341 341 353 353 337 332 321 310 137 96 245 223 199 202 202 203 202 200 200 201 204 207 206 207 207 207 208 211 210 210 210 207 210 214 214 217 220 221 222 224 226 227 225 221 209 208 207 204 203 203 219 216 217 221 221 221 224 228 228 229 234 244 241 241 241 237 236 239 246 247 243 237 241 250 245
1 5 6 348 340 334 338 344 347 343 341 342 354 355 341 334 331 322 63 136 132 150 265 230 210 206 203 202 203 203 206 205 204 204 205 208 210 213 211 210 208 208 210 212 212 215 218 219 222 222 226 228 228 218 208 207 208 204 202 197 213 217 219 222 224 223 224 226 227 224 226 234 239 238 233 228 231 236 239 245 250 253 250 250 249
349 348 348 350 330 320 323 330 322 335 336 348 354 345 342 328 321 313 285 207 185 188 200 205 212 211 208 206 204 206 208 207 206 206 207 209 208 207 208 206 208 211 212 211 213 214 215 217 219 220 223 229 230 215 207 206 206 206 197 194 206 214 219 223 225 224 225 227 227 225 226 232 237 237 236 229 228 228 230 242 247 254 258 257 255
342 337 333 328 314 311 315 314 326 334 335 343 342 340 331 322 321 322 332 298 300 295 258 226 215 210 212 209 206 206 208 208 206 207 211 212 210 209 210 203 208 211 210 210 212 212 214 216 217 217 221 227 230 216 205 205 205 202 185 199 202 211 219 224 229 226 225 226 226 224 225 233 237 239 236 224 224 220 231 236 241 249 254 261 264
334 331 334 334 325 319 315 322 325 329 338 340 333 337 321 314 322 325 330 334 313 259 249 249 247 232 222 216 213 211 210 208 206 210 211 212 211 211 210 203 209 210 214 214 211 213 212 212 213 216 217 222 228 218 203 204 203 194 186 195 200 205 218 222 230 231 228 226 224 220 220 228 235 240 238 225 217 203 222 232 237 245 255 259 263
336 342 341 332 329 319 316 317 323 329 339 342 339 326 308 312 320 316 322 319 315 304 286 262 248 236 235 236 229 222 218 212 210 212 210 209 207 207 205 204 210 212 217 214 214 217 216 214 215 217 216 218 226 222 205 203 200 192 189 200 197 203 216 224 226 234 231 228 227 224 225 226 231 238 241 235 216 193 217 225 229 236 247 253 254
334 341 333 326 320 312 323 329 328 325 325 333 321 307 311 337 335 322 324 336 353 353 344 331 312 258 226 221 224 227 223 218 216 213 209 209 205 204 204 205 207 210 213 213 214 214 217 218 215 215 217 216 222 224 209 202 198 192 190 194 198 198 216 223 224 227 235 231 226 227 226 228 231 236 240 239 229 198 212 227 220 226 241 251 254
332 329 334 328 320 318 317 318 318 315 322 324 326 322 337 359 356 331 345 348 339 337 334 326 318 316 290 239 226 221 223 223 221 216 210 207 203 206 205 205 206 208 210 212 214 213 216 219 216 216 218 216 218 221 216 198 199 191 193 192 199 205 213 218 220 224 229 231 227 224 228 222 222 229 235 239 238 220 215 228 222 222 228 242 255
312 322 334 325 324 322 322 322 323 323 321 323 327 325 321 342 351 343 341 334 330 328 328 324 317 306 299 287 247 230 222 219 218 218 217 216 211 207 206 207 207 206 210 213 214 214 216 218 218 217 218 220 216 213 218 202 197 194 192 194 199 210 208 212 219 228 228 229 228 223 226 223 219 224 231 235 235 234 224 221 235 229 235 241 246
321 328 330 331 328 328 329 326 329 327 321 321 324 323 326 334 340 344 332 325 324 324 324 321 311 302 295 286 276 245 228 221 216 212 214 219 211 208 209 206 205 207 210 213 214 214 215 217 218 218 218 217 217 214 213 210 199 195 193 195 204 208 205 207 214 226 226 227 223 226 229 226 221 222 225 226 227 229 226 225 234 237 236 241 247
307 309 320 330 325 327 330 333 330 321 318 317 317 317 321 328 325 333 325 323 321 324 319 316 307 300 294 291 281 264 236 222 219 215 214 215 210 208 208 206 205 206 208 212 215 212 213 216 218 220 218 217 214 217 211 211 202 197 196 197 205 213 205 206 211 225 228 225 223 224 227 225 221 219 220 221 221 218 217 226 230 238 241 238 228
303 306 311 323 326 320 323 328 329 319 319 316 317 321 319 317 318 322 326 318 317 319 321 311 308 298 289 288 283 267 246 226 222 216 215 214 212 206 207 206 203 206 208 212 213 208 210 214 216 218 218 215 212 214 218 209 206 196 198 200 205 209 214 209 212 225 229 226 224 223 223 224 223 219 220 222 227 227 227 231 226 226 228 222 219
288 297 312 319 318 318 319 321 323 325 322 320 321 322 317 314 315 321 317 314 310 312 308 308 304 298 290 290 286 276 254 233 222 219 215 209 207 203 205 203 201 205 208 211 210 207 210 212 215 218 216 213 209 212 218 209 201 203 203 206 205 208 212 212 214 221 220 223 224 224 224 229 231 227 212 208 215 221 223 225 230 231 221 218 214
285 280 297 308 327 325 320 322 324 326 322 316 318 320 316 314 319 321 315 311 307 297 298 298 294 297 295 288 282 273 261 241 225 220 217 212 205 203 204 204 201 205 209 212 210 205 210 211 216 217 213 209 209 214 214 212 188 195 204 208 212 222 224 223 229 243 248 248 242 230 220 212 211 208 209 215 218 225 219 216 217 215 213 214 212
270 273 281 288 299 304 308 314 316 319 318 314 319 321 315 315 319 320 316 311 302 300 301 302 299 298 292 293 290 283 271 247 230 217 213 211 204 202 203 203 201 203 206 209 206 206 208 210 215 212 208 209 215 216 212 209 200 193 200 191 197 202 200 201 213 222 224 231 233 213 177 176 193 207 215 222 227 222 218 209 208 205 210 214 218
288 278 273 275 279 289 294 301 306 311 314 316 316 315 315 317 322 321 318 311 307 307 305 298 295 290 283 278 283 289 282 256 232 221 215 208 201 200 205 208 208 203 202 201 202 207 207 210 210 206 202 211 217 219 219 204 199 191 189 190 190 202 201 206 213 209 210 211 208 215 226 216 210 218 218 220 222 219 219 213 212 206 208 205 204
281 271 264 270 274 274 277 284 294 306 310 308 310 310 312 322 327 324 316 313 312 308 303 299 297 291 286 285 280 284 286 275 247 228 219 221 217 207 202 203 207 208 208 208 198 203 206 206 210 209 202 206 211 217 206 183 195 192 191 191 197 196 197 201 208 197 187 187 195 210 216 218 222 220 226 226 224 217 215 209 214 210 203 201 205
282 283 274 261 267 273 278 277 285 305 305 306 308 312 315 317 320 316 315 309 307 301 296 294 292 285 283 285 286 285 289 280 260 239 224 219 215 220 26 16 5 327 228 220 214 217 217 211 204 212 214 220 225 220 179 185 194 192 191 196 200 203 200 206 180 125 166 196 206 211 219 219 223 223 226 229 225 216 212 209 211 203 202 203 204